Location: ??
(35.4627°N, 139.3695°E)
Time: 14:50:01
(UTC+00:00)

Cosmos 1408 Rocket - Pass Details

Date: 25 November 2020
Orbit: 600 x 631 km, 82.6° (Epoch: 21 January)

Event Time Altitude Azimuth Distance (km) Brightness Sun altitude
Rises 19:58:27 0° 181° (S) 2,904 7.2 -18.1°
Reaches altitude 10° 20:00:40 10° 180° (S) 2,002 6.3 -17.7°
Maximum altitude 20:05:06 75° 95° (E) 655 3.8 -16.8°
Drops below altitude 10° 20:09:34 10° 10° (N) 2,015 6.1 -15.9°
Sets 20:11:49 0° 9° (N) 2,925 7.0 -15.5°
